[[{"header":{"parameterUnit":"m.s-1","parameterCategory":1,"la1":30.2991,"la2":30.254,"lo1":-89.0895,"lo2":-89.0444,"dy":0.0017,"dx":0.0017,"nx":28,"ny":28,"refTime":"2024-12-26T03:00:00:Z","depth":0,"parameterNumber":2,"parameterNumberName":"U-component_of_WINDS"},"data":[0,0,0,0,0,0,0,0,0,0,0,0,0,0,0,0,0,0,0,0,0,0,0,0,0,0,0,0,0,0,0,0,0,0,0,0,0,0,0,0,0,0,0,0,0,0,0,0,0,0,0,0,0,0,0,0,0,0,-2.8015,-2.8018,0,-2.8357,-2.8361,-2.8365,-2.8523,-2.8522,-2.8522,-2.8522,-2.8876,-2.8885,-2.8895,0,0,0,0,0,0,0,0,0,0,0,0,0,-2.75,-2.7509,-2.8014,-2.8019,-2.8023,-2.8357,-2.8361,-2.8366,-2.8523,-2.8522,-2.8522,-2.8522,-2.8873,-2.8884,-2.8896,0,0,0,0,0,0,0,0,0,0,0,0,0,-2.7771,-2.7511,-2.8014,-2.8141,-2.8156,-2.8356,-2.8361,-2.8367,-2.8523,-2.8522,-2.8522,-2.8521,-2.8869,-2.8883,-2.8897,-2.8997,0,0,-2.8942,-2.8948,0,0,0,0,0,0,0,0,-2.7755,-2.779,-2.8118,-2.8133,-2.815,-2.8397,-2.831,-2.8578,-2.8523,-2.8384,-2.8522,-2.8521,-2.8717,-2.8744,-2.8809,-2.9013,-2.9028,-2.8943,-2.8952,-2.8958,-2.8962,0,0,0,0,0,0,0,-2.7736,-2.7776,-2.815,-2.8123,-2.8142,-2.8183,-2.8221,-2.8362,-2.8549,-2.8396,-2.8408,-2.8446,-2.8725,-2.8795,-2.8819,-2.9034,-2.8943,-2.8956,-2.8965,-2.897,-2.9339,-2.934,0,0,0,0,0,0,-2.7696,-2.7759,-2.8139,-2.816,-2.7947,-2.8192,-2.8235,-2.8318,-2.8548,-2.8582,-2.8446,-2.8452,-2.877,-2.8802,-2.8832,-2.8965,-2.8958,-2.8972,-2.898,-2.9338,-2.9339,-2.934,0,0,0,0,0,0,-2.7685,-2.7729,-2.8125,-2.7963,-2.8017,-2.8202,-2.8294,-2.8325,-2.8395,-2.8586,-2.862,-2.8482,-2.8771,-2.8811,-2.8955,-2.8979,-2.8978,-2.8992,-2.9337,-2.9338,-2.934,-2.923,0,0,0,0,0,0,-2.7669,-2.7724,-2.7762,-2.7963,-2.8025,-2.8241,-2.8295,-2.8332,-2.8419,-2.843,-2.8629,-2.8662,-2.8774,-2.8932,-2.8969,-2.8999,-2.9003,-2.9335,-2.9337,-2.9339,-2.9232,-2.9228,-2.9224,0,0,0,0,0,-2.765,-2.7718,-2.7763,-2.7808,-2.8077,-2.8242,-2.8278,-2.8404,-2.842,-2.8461,-2.8585,-2.8655,-2.897,-2.8945,-2.8989,-2.9023,-2.9334,-2.9337,-2.9339,-2.9234,-2.9229,-2.9224,0,0,0,0,0,0,-2.7516,-2.7746,-2.7799,-2.7933,-2.8067,-2.8268,-2.8324,-2.8394,-2.8527,-2.8532,-2.8685,-2.8728,-2.8858,-2.8956,-2.8924,-2.9133,-2.9159,-2.917,-2.9064,-2.9061,-2.9056,-2.9031,-2.9015,0,0,0,0,0,-2.7501,-2.7615,-2.7811,-2.7911,-2.7975,-2.8137,-2.8214,-2.83,-2.8445,-2.8502,-2.8636,-2.8775,-2.8906,-2.8989,-2.912,-2.9247,-2.9294,-2.9293,-2.9288,-2.9284,-2.9292,-2.9368,-2.9371,-2.9348,-2.9348,-2.9348,0,0,-2.7473,-2.7613,-2.7676,-2.7887,-2.8001,-2.8116,-2.8184,-2.8303,-2.8391,-2.8521,-2.8665,-2.8768,-2.8933,-2.9069,-2.9136,-2.9154,-2.9308,-2.9287,-2.9282,-2.9293,-2.9371,-2.9373,-2.9375,-2.935,-2.9349,-2.9349,0,0,-2.7482,-2.7598,-2.7695,-2.7807,-2.7978,-2.8086,-2.8109,-2.83,-2.8373,-2.852,-2.862,-2.8728,-2.8949,-2.9064,-2.915,-2.9203,-2.9274,-2.9242,-2.9219,-2.9292,-2.9294,-2.9296,-2.9317,-2.9322,-2.9249,-2.9249,-2.9249,0,-2.7425,-2.7603,-2.7736,-2.785,-2.7941,-2.8063,-2.8163,-2.8266,-2.8471,-2.8531,-2.8549,-2.883,-2.895,-2.9116,-2.9128,-2.9194,-2.9227,-2.922,-2.9283,-2.9287,-2.9291,-2.9312,-2.9319,-2.9244,-2.9244,-2.9245,-2.9245,0,-2.7526,-2.7647,-2.7705,-2.7899,-2.7997,-2.8103,-2.8253,-2.8336,-2.8414,-2.8521,-2.8669,-2.8818,-2.8981,-2.9027,-2.9104,-2.9204,-2.921,-2.9253,-2.9282,-2.9286,-2.9308,-2.9317,-2.9237,-2.9238,-2.924,-2.9241,0,0,-2.7459,-2.7725,-2.7744,-2.7835,-2.8033,-2.813,-2.8243,-2.8402,-2.8471,-2.8608,-2.8708,-2.8893,-2.8934,-2.9033,-2.9125,-2.9188,-2.9223,-2.9224,-2.9231,-2.922,-2.9344,-2.931,-2.9317,-2.927,-2.9273,-2.9274,-2.933,0,-2.7495,-2.7701,-2.7824,-2.7981,-2.8096,-2.8214,-2.8313,-2.8446,-2.8549,-2.8663,-2.8777,-2.8906,-2.895,-2.9011,-2.9079,-2.9203,-2.925,-2.9201,-2.9366,-2.937,-2.9321,-2.9329,-2.9294,-2.934,-2.934,-2.9341,-2.9342,0,-2.7564,-2.7699,-2.7866,-2.8052,-2.8105,-2.8191,-2.8348,-2.8455,-2.8609,-2.868,-2.879,-2.8882,-2.9008,-2.9027,-2.9203,-2.9167,-2.9243,-2.9314,-2.9319,-2.934,-2.9356,-2.9351,-2.9357,-2.9364,-2.9357,-2.9356,-2.9355,0,-2.7499,-2.7722,-2.7852,-2.7925,-2.8145,-2.8204,-2.8298,-2.8452,-2.854,-2.8678,-2.8737,-2.8887,-2.897,-2.9085,-2.9217,-2.9218,-2.9381,-2.941,-2.9444,-2.9441,-2.9473,-2.9469,-2.9492,-2.952,-2.952,-2.9519,-2.9519,0,-2.7527,-2.7625,-2.7826,-2.7905,-2.8019,-2.8161,-2.8271,-2.8376,-2.8511,-2.8615,-2.8727,-2.8822,-2.8989,-2.9106,-2.9209,-2.9341,-2.9377,-2.9439,-2.9465,-2.9429,-2.9421,-2.9481,-2.9481,-2.9522,-2.9521,-2.9521,-2.952,0,-2.7474,-2.7612,-2.7761,-2.7957,-2.8009,-2.8085,-2.8254,-2.8337,-2.8446,-2.8575,-2.8614,-2.8786,-2.8929,-2.9071,-2.9263,-2.9333,-2.9463,-2.9498,-2.941,-2.9425,-2.9452,-2.9447,-2.9514,-2.9531,-2.9545,-2.9544,-2.9544,0,-2.7483,-2.7561,-2.7766,-2.7842,-2.7934,-2.8057,-2.8147,-2.8291,-2.8381,-2.8563,-2.8625,-2.8775,-2.8904,-2.9127,-2.927,-2.9418,-2.9459,-2.9472,-2.9482,-2.9443,-2.946,-2.9454,-2.9463,-2.9467,-2.9466,-2.9465,-2.9465,0,-2.7484,-2.7549,-2.7674,-2.7824,-2.7929,-2.8054,-2.8184,-2.8241,-2.841,-2.8506,-2.8653,-2.8752,-2.8949,-2.9098,-2.9263,-2.9363,-2.9443,-2.9461,-2.9477,-2.9441,-2.9387,-2.9418,-2.9399,-2.9459,-2.9459,-2.946,-2.946,-2.946,-2.7464,-2.7539,-2.7695,-2.7832,-2.7944,-2.8063,-2.8151,-2.8271,-2.8395,-2.8565,-2.8643,-2.8791,-2.8946,-2.9176,-2.9275,-2.9394,-2.9415,-2.9437,-2.9444,-2.9447,-2.9439,-2.9367,-2.9425,-2.9425,-2.9425,-2.9426,-2.9426,0,-2.7472,-2.7578,-2.7702,-2.788,-2.7988,-2.8052,-2.8199,-2.8286,-2.8414,-2.8551,-2.8675,-2.8844,-2.899,-2.9144,-2.9299,-2.9365,-2.9406,-2.9401,-2.9398,-2.942,-2.9411,-2.9382,-2.9366,-2.9366,-2.9366,-2.9366,-2.9366,-2.9366,-2.7489,-2.762,-2.7703,-2.7892,-2.7999,-2.8144,-2.8223,-2.8334,-2.8444,-2.8627,-2.8748,-2.8848,-2.8993,-2.916,-2.9297,-2.9339,-2.9391,-2.9376,-2.9428,-2.9417,-2.9421,-2.9425,-2.9398,-2.9386,-2.9386,-2.9428,-2.9428,-2.9429]},{"header":{"parameterUnit":"m.s-1","parameterCategory":1,"la1":30.2991,"la2":30.254,"lo1":-89.0895,"lo2":-89.0444,"dy":0.0017,"dx":0.0017,"nx":28,"ny":28,"refTime":"2024-12-26T03:00:00:Z","depth":0,"parameterNumber":3,"parameterNumberName":"V-component_of_WINDS"},"data":[0,0,0,0,0,0,0,0,0,0,0,0,0,0,0,0,0,0,0,0,0,0,0,0,0,0,0,0,0,0,0,0,0,0,0,0,0,0,0,0,0,0,0,0,0,0,0,0,0,0,0,0,0,0,0,0,0,0,5.0343,5.0344,0,5.0481,5.0482,5.0484,5.0521,5.052,5.0519,5.0519,5.0663,5.0668,5.0673,0,0,0,0,0,0,0,0,0,0,0,0,0,5.0115,5.0119,5.0342,5.0344,5.0346,5.0481,5.0483,5.0484,5.0521,5.052,5.0519,5.0518,5.0662,5.0667,5.0673,0,0,0,0,0,0,0,0,0,0,0,0,0,5.0229,5.012,5.0342,5.038,5.0385,5.048,5.0483,5.0485,5.0521,5.052,5.0519,5.0518,5.066,5.0667,5.0674,5.0741,0,0,5.0695,5.0698,0,0,0,0,0,0,0,0,5.0223,5.0238,5.0373,5.0378,5.0384,5.0482,5.0455,5.0571,5.0522,5.047,5.0519,5.0517,5.0604,5.0616,5.0645,5.0748,5.0754,5.0696,5.07,5.0703,5.0705,0,0,0,0,0,0,0,5.0215,5.0232,5.0397,5.0375,5.0381,5.0392,5.0407,5.0477,5.0543,5.0474,5.0477,5.0493,5.0607,5.0638,5.0648,5.0757,5.0695,5.0702,5.0706,5.0709,5.0927,5.0928,0,0,0,0,0,0,5.02,5.0225,5.0393,5.0401,5.0298,5.0397,5.0414,5.0452,5.0542,5.0554,5.0494,5.0494,5.0627,5.064,5.0654,5.0742,5.0703,5.0709,5.0713,5.0925,5.0927,5.0929,0,0,0,0,0,0,5.0195,5.0214,5.0387,5.0314,5.0337,5.0403,5.0445,5.0455,5.0486,5.0557,5.0569,5.0513,5.0626,5.0644,5.072,5.0747,5.0712,5.0719,5.0923,5.0926,5.0928,5.0916,0,0,0,0,0,0,5.0188,5.0212,5.0238,5.0314,5.0341,5.045,5.0446,5.0459,5.0498,5.0499,5.0578,5.059,5.0627,5.0709,5.0727,5.0756,5.0724,5.0921,5.0924,5.0927,5.0914,5.0918,5.0921,0,0,0,0,0,5.018,5.0229,5.0239,5.0259,5.0373,5.0451,5.0467,5.0507,5.0499,5.0527,5.0572,5.0587,5.0741,5.0717,5.0737,5.0768,5.092,5.0923,5.0927,5.0913,5.0917,5.0921,0,0,0,0,0,0,5.0154,5.0239,5.0251,5.0326,5.0381,5.0457,5.0492,5.051,5.0568,5.0568,5.0616,5.0634,5.0707,5.0745,5.0717,5.084,5.0831,5.0838,5.0813,5.0818,5.0821,5.0811,5.073,0,0,0,0,0,5.0157,5.0212,5.0284,5.0343,5.037,5.0426,5.0462,5.0488,5.0547,5.0571,5.0622,5.068,5.0742,5.0782,5.0842,5.0919,5.0939,5.0951,5.0954,5.0957,5.0964,5.1011,5.1018,5.0941,5.0941,5.0941,0,0,5.0164,5.0217,5.0249,5.0339,5.0385,5.0443,5.0446,5.0506,5.055,5.0581,5.0656,5.0696,5.0764,5.0842,5.0879,5.0876,5.0989,5.0961,5.0963,5.0969,5.1015,5.1023,5.1029,5.0943,5.0943,5.0942,0,0,5.0206,5.0251,5.0306,5.0352,5.0421,5.0459,5.0472,5.0546,5.0574,5.065,5.0675,5.0729,5.0833,5.0881,5.092,5.0982,5.1,5.1001,5.1018,5.1063,5.107,5.1075,5.1101,5.1109,5.1007,5.1007,5.1007,0,5.0206,5.0293,5.0333,5.0393,5.0433,5.0463,5.0521,5.0564,5.065,5.0678,5.0672,5.0806,5.0854,5.0945,5.096,5.0989,5.1008,5.0993,5.1065,5.1071,5.1077,5.1102,5.1111,5.1007,5.1007,5.1007,5.1007,0,5.0291,5.0351,5.0387,5.0469,5.0514,5.0572,5.0623,5.0663,5.0686,5.0725,5.0804,5.0862,5.0937,5.096,5.0982,5.1055,5.1052,5.1055,5.1047,5.1084,5.1108,5.1118,5.1006,5.1006,5.1007,5.1007,0,0,5.0321,5.0425,5.0438,5.0477,5.0556,5.0604,5.0665,5.0737,5.0772,5.083,5.0884,5.0972,5.0977,5.102,5.1049,5.1088,5.1138,5.1088,5.109,5.1098,5.1226,5.1225,5.1235,5.1149,5.1151,5.1153,5.1221,0,5.0376,5.0484,5.0523,5.0614,5.0672,5.0702,5.0755,5.0811,5.0848,5.0904,5.0947,5.101,5.1009,5.1036,5.1076,5.1124,5.1165,5.1119,5.1203,5.1206,5.1188,5.1247,5.1246,5.1308,5.1231,5.1232,5.1234,0,5.0453,5.0513,5.0609,5.0683,5.0709,5.0756,5.0827,5.0878,5.0943,5.0968,5.1017,5.1044,5.1111,5.1097,5.1192,5.116,5.1197,5.1225,5.1229,5.1241,5.1224,5.1263,5.1328,5.1338,5.1248,5.1247,5.1246,0,5.047,5.0573,5.0645,5.0677,5.0764,5.0798,5.0836,5.0899,5.094,5.1002,5.103,5.1099,5.1138,5.1191,5.1237,5.1222,5.1329,5.1318,5.1355,5.1354,5.1378,5.1376,5.1453,5.1397,5.1397,5.1396,5.1396,0,5.0528,5.0586,5.0654,5.0698,5.0766,5.0811,5.0877,5.0917,5.0973,5.1028,5.1057,5.1108,5.1163,5.1222,5.1258,5.1334,5.135,5.1374,5.1384,5.1374,5.1371,5.14,5.1398,5.1399,5.1398,5.1398,5.1397,0,5.0558,5.0605,5.0686,5.0762,5.0783,5.083,5.0896,5.0942,5.0981,5.105,5.1069,5.1131,5.1202,5.1252,5.1343,5.1368,5.145,5.1457,5.1428,5.1434,5.1469,5.1466,5.1569,5.1586,5.1515,5.1516,5.1516,0,5.0593,5.0639,5.0721,5.0759,5.0797,5.0858,5.0901,5.0947,5.0991,5.1069,5.1106,5.1178,5.124,5.1352,5.1407,5.1478,5.1489,5.152,5.15,5.1489,5.1494,5.1492,5.1498,5.1524,5.1525,5.1525,5.1525,0,5.0652,5.0674,5.0733,5.0802,5.0852,5.0909,5.0966,5.0996,5.1053,5.1101,5.1174,5.1221,5.1314,5.1388,5.1464,5.1506,5.1527,5.1531,5.1544,5.1535,5.1518,5.1532,5.144,5.1529,5.1529,5.1528,5.1528,5.1528,5.0689,5.0732,5.0797,5.0863,5.0911,5.0964,5.1011,5.1057,5.1118,5.1197,5.1221,5.1297,5.1363,5.1468,5.1511,5.1573,5.1571,5.1589,5.1594,5.1599,5.16,5.1505,5.1586,5.1586,5.1586,5.1586,5.1586,0,5.0752,5.0795,5.0856,5.0935,5.0988,5.1,5.1065,5.1109,5.1176,5.1235,5.1294,5.138,5.1451,5.1512,5.1586,5.1625,5.1637,5.1643,5.1643,5.1653,5.1596,5.1579,5.1633,5.1633,5.1633,5.1633,5.1633,5.1633,5.0791,5.0866,5.0896,5.0996,5.1039,5.1113,5.115,5.12,5.1248,5.1341,5.14,5.1439,5.15,5.158,5.1647,5.1663,5.1691,5.1696,5.1715,5.1661,5.1656,5.1651,5.1636,5.1701,5.1701,5.1768,5.1768,5.1769]}]]